sat.trackr.live / text

‹ back to catalog

USA 167

NORAD 27691 · 2003-008A

PAYLOAD ACTIVE UNKNOWN

§ Identity

Operator
Country
US
Launch date
2003-03-11
Launch site
AFETR
Launch vehicle
Mass (kg)
RCS (m²)

Purposes: comms

External: N2YO · Heavens-Above · Gunter

§ Orbital elements

Epoch: 2026-09-19T13:50:54.751776Z

Period
1,436.07 min
Inclination
11.1451°
Eccentricity
0.0002903
Mean motion
1.00273715 rev/d
Perigee alt
35,773.8 km
Apogee alt
35,798.3 km
Semi-major
42,164.2 km
B*
0.0000e+0
RAAN
42.5337°
Arg perigee
287.2648°
Mean anomaly
114.3572°
Rev number
772

§ Raw data

USA 1671 27691U 03008A   26262.57702259  .00000005  00000+0  00000+0 0  99942 27691  11.1451  42.5337 0002903 287.2648 114.3572  1.00273715  7720

JSON: /api/v1/satellites/27691 · /tle

For live sub-satellite position, see the globe view (requires WebGL).

§ Visibility from observer

Set your observer location to see the next 7 days of passes ≥ 10°. The values pass through the URL so the page stays shareable.

No JS? Fill the form by hand. The geolocation button needs JavaScript.